Regional Weather Roundup
Issued by NWS Kansas City/Pleasant Hill, MO

Home | Current Version | Previous Version | Text Only | Print | Product List | Glossary On
Versions: 1 2 3 4 5 6 7 8 9 10 11 12 13 14 15 16 17 18 19 20 21 22 23 24 25 26 27 28 29 30 31 32 33 34 35 36 37 38 39 40 41 42 43 44 45 46 47 48 49 50
000
ASUS43 KEAX 310204
RWREAX

WEATHER ROUNDUP FOR EASTERN KANSAS AND NORTHWEST MISSOURI
NATIONAL WEATHER SERVICE KANSAS CITY/PLEASANT HILL MO
900 PM CDT THU OCT 30 2014

KSZ040-057-103>105-MOZ028-029-037-043-310300-
...KANSAS CITY METROPOLITAN AREA...

CITY           SKY/WX    TMP DP  RH WIND       PRES   REMARKS
K.C. INTL      CLEAR     55  41  59 NW10      30.13R
K.C. DOWNTOWN  CLEAR     59  41  51 N8        30.12R
LEES SUMMIT    CLEAR     57  41  55 N15G22    30.12R
OLATHE - IXD   CLEAR     54  41  61 NW13      30.14R
OLATHE - OJC   CLEAR     57  41  55 N12       30.12R
LAWRENCE       CLEAR     56  40  55 N21       30.15R

$$

MOZ001>008-011>017-020>025-030>033-038>040-044>046-053-054-310300-
...NORTHERN AND CENTRAL MISSOURI...

CITY           SKY/WX    TMP DP  RH WIND       PRES   REMARKS
ST. JOSEPH     PTCLDY    56  41  57 N16G25    30.16R
MOSBY          CLEAR     55  41  58 NW9       30.11R
WHITEMAN AFB   CLEAR     57  41  55 NW12      30.07R
CLINTON        CLEAR     54  43  66 CALM      30.08R
SEDALIA        CLEAR     55  42  61 NW10      30.07R
WARSAW         NOT AVBL
MARSHALL       CLEAR     55  45  67 NW5       30.08R
CHILLICOTHE      N/A     56  39  53 N6        30.10R
MOBERLY        CLEAR     50  41  71 N3        30.06R
KIRKSVILLE     CLOUDY    49  43  80 N5        30.07R

$$

MOZ041-047>049-056>058-063>065-088>090-097-310300-
...EASTERN AND SOUTHERN MISSOURI...

CITY           SKY/WX    TMP DP  RH WIND       PRES   REMARKS
ST. LOUIS INTL MOCLDY    54  45  71 W3        30.03S
SPIRIT OF STL  PTCLDY    48  45  89 CALM      30.03S
COLUMBIA       PTCLDY    50  47  89 NE3       30.03S
JEFFERSON CITY PTCLDY    47  45  93 CALM      30.03S
MEXICO         PTCLDY    50  48  93 N3        30.04R
ROLLA          CLEAR     40  40 100 CALM      30.01S
LEBANON        CLEAR     54  41  62 NW6       30.05R
OSAGE BEACH    CLEAR     46  45  93 CALM      30.04R
SPRINGFIELD    CLEAR     53  39  59 NW8       30.06R
BRANSON        CLEAR     57  39  51 NW9       30.07R
NEVADA         CLEAR     57  39  51 NW9       30.12R
JOPLIN         CLEAR     53  39  59 NW5       30.11R
WEST PLAINS    CLEAR     46  41  82 CALM      30.03S

$$

IAZ060-094-KSZ022-034>040-054-083-096-NEZ052-066-093-310300-
...KANSAS...SOUTHEAST NEBRASKA AND IOWA...

CITY           SKY/WX    TMP DP  RH WIND       PRES   REMARKS
TOPEKA         CLEAR     56  41  57 N14       30.18R
MANHATTAN      CLEAR     57  39  51 N8G17     30.22R
EMPORIA        CLEAR     55  38  52 N10       30.17R
CHANUTE        CLEAR     56  40  55 N8        30.14R
WICHITA        CLEAR     60  34  37 NW13      30.20R
OMAHA          CLOUDY    50  40  68 N21G30    30.25R
LINCOLN        PTCLDY    46  37  71 N20       30.30R
FALLS CITY     CLEAR     52  39  61 NW15G25   30.19R
LAMONI         CLEAR     51  38  60 N14G21    30.12R
DES MOINES     CLOUDY    55  37  50 N17G28    30.16R

$$




USA.gov is the U.S. government's official web portal to all federal, state and local government web resources and services.